This is the latest recevied weather packets stored in our database for station/object N4QD-13. If no packets are shown the sender has not sent any weather packets the latest 10 day(s).
| Time | Temp. | Humidity | Pressure | Rain* | Wind** | Luminosity | Snow |
|---|---|---|---|---|---|---|---|
| 1777510656 | 15.56° C | 99% | 1009.4 hPa | 4.83 mm | - | 0 W/m² | - |
| 1777510352 | 15.56° C | 99% | 1009.4 hPa | 0 mm | - | 0 W/m² | - |
| 1777510049 | 15.56° C | 99% | 1009.2 hPa | 0 mm | - | 0 W/m² | - |
| 1777509746 | 15.56° C | 99% | 1009.2 hPa | 0 mm | - | 0 W/m² | - |
| 1777509441 | 15.56° C | 99% | 1009 hPa | 0 mm | - | 0 W/m² | - |
| 1777509140 | 15.56° C | 99% | 1008.8 hPa | 0 mm | - | 0 W/m² | - |
| 1777508836 | 15.56° C | 99% | 1008.7 hPa | 0 mm | - | 0 W/m² | - |
| 1777508533 | 15.56° C | 99% | 1008.7 hPa | 0 mm | - | 0 W/m² | - |
| 1777508230 | 15.56° C | 99% | 1008.6 hPa | 0 mm | - | 0 W/m² | - |
| 1777507928 | 15.56° C | 99% | 1008.3 hPa | 0 mm | - | 0 W/m² | - |
| 1777507624 | 15.56° C | 99% | 1008.4 hPa | 0 mm | - | 0 W/m² | - |
| 1777507321 | 15.56° C | 99% | 1008.4 hPa | 0 mm | - | 1 W/m² | - |
| 1777507018 | 15.56° C | 99% | 1008.4 hPa | 0 mm | - | 4 W/m² | - |
| 1777506715 | 15.56° C | 99% | 1008.3 hPa | 0 mm | - | 7 W/m² | - |
| 1777506411 | 15.56° C | 99% | 1008.3 hPa | 0 mm | - | 6 W/m² | - |
| 1777506108 | 15.56° C | 99% | 1008.4 hPa | 0 mm | - | 9 W/m² | - |
| 1777505803 | 16.11° C | 99% | 1008.1 hPa | 0 mm | - | 19 W/m² | - |
| 1777505500 | 16.11° C | 99% | 1007.9 hPa | 0 mm | - | 33 W/m² | - |
| 1777505197 | 16.11° C | 99% | 1008.1 hPa | 0 mm | - | 19 W/m² | - |
| 1777504894 | 16.11° C | 99% | 1008.3 hPa | 0 mm | - | 12 W/m² | - |
| 1777504591 | 16.11° C | 99% | 1008.1 hPa | 0 mm | - | 12 W/m² | - |
| 1777504286 | 16.11° C | 99% | 1008.2 hPa | 0 mm | - | 18 W/m² | - |
| 1777503982 | 16.11° C | 99% | 1008.2 hPa | 0 mm | - | 37 W/m² | - |
| 1777503679 | 16.11° C | 99% | 1008.2 hPa | 0 mm | - | 68 W/m² | - |
| 1777503376 | 16.11° C | 99% | 1008.1 hPa | 0 mm | - | 51 W/m² | - |
* Rain latest hour (hover to see other rain measurements)
** Current wind speed in m/s (hover to see current wind gust speed)